Location: Unspecified
(42.3650°N, 71.1030°W)
Time: 16:50:48
(UTC+00:00)

Tiros 1 - Pass Details

Date: 03 July 2024
Orbit: 624 x 656 km, 48.4° (Epoch: 13 July)

Event Time Altitude Azimuth Distance (km) Brightness Sun altitude
Rises 07:56:30 0° 284° (WNW) 2,909 10.2 -11.7°
Enters shadow 07:58:56 - 267° (W) 2,209 9.5 -11.4°
Reaches altitude 10° 07:59:53 10° 258° (WSW) 2,003 - -11.3°
Maximum altitude 08:02:08 14° 228° (SW) 1,777 - -11.0°
Drops below altitude 10° 08:04:24 10° 199° (SSW) 2,006 - -10.7°
Exits shadow 08:07:04 - 177° (S) 2,685 9.9 -10.3°
Sets 08:07:48 0° 173° (S) 2,916 10.2 -10.2°
